GLD1793 TRPG-TAPA

Flight info

Callsign GLD1793
Flight time 0h 11m
Altitude 35000
Route DCT EMALI DCT
Aircraft BE58/M-SDFGIRY/S

Departure

Time 2026-05-05 19:27
Airport John A. Osborne Airport (TRPG)

Arrival

Time 2026-05-05 19:38
Airport V. C. Bird International Airport (TAPA)
Time Latitude Longitude Altitude Speed Heading
2026-05-05 19:20 16.79228 -62.19373 551 ft 0 kts 171°
2026-05-05 19:21 16.79218 -62.19363 551 ft 5 kts 100°
2026-05-05 19:21 16.79217 -62.19357 550 ft 0 kts 98°
2026-05-05 19:24 16.79216 -62.19349 578 ft 1 kts 96°
2026-05-05 19:24 16.79210 -62.19328 550 ft 7 kts 135°
2026-05-05 19:24 16.79142 -62.19323 550 ft 13 kts 217°
2026-05-05 19:24 16.79133 -62.19430 550 ft 17 kts 269°
2026-05-05 19:25 16.79142 -62.19560 548 ft 11 kts 262°
2026-05-05 19:25 16.79131 -62.19526 548 ft 28 kts 90°
2026-05-05 19:25 16.79144 -62.19074 575 ft 84 kts 95°
2026-05-05 19:25 16.79243 -62.18424 750 ft 106 kts 79°
2026-05-05 19:26 16.79778 -62.17649 881 ft 151 kts 55°
2026-05-05 19:26 16.80497 -62.16773 954 ft 169 kts 55°
2026-05-05 19:26 16.81291 -62.15818 1045 ft 180 kts 49°
2026-05-05 19:26 16.82291 -62.14966 1111 ft 185 kts 43°
2026-05-05 19:27 16.83290 -62.14142 1168 ft 186 kts 44°
2026-05-05 19:27 16.84289 -62.13275 1203 ft 187 kts 45°
2026-05-05 19:27 16.85289 -62.12398 1310 ft 186 kts 46°
2026-05-05 19:27 16.86271 -62.11538 1385 ft 183 kts 46°
2026-05-05 19:28 16.87252 -62.10677 1429 ft 184 kts 45°
2026-05-05 19:28 16.88235 -62.09815 1458 ft 185 kts 44°
2026-05-05 19:28 16.89228 -62.08945 1462 ft 187 kts 45°
2026-05-05 19:28 16.90226 -62.08069 1460 ft 188 kts 43°
2026-05-05 19:29 16.91228 -62.07192 1462 ft 186 kts 44°
2026-05-05 19:29 16.92222 -62.06322 1465 ft 187 kts 45°
2026-05-05 19:29 16.93209 -62.05455 1462 ft 188 kts 45°
2026-05-05 19:29 16.94215 -62.04574 1464 ft 189 kts 45°
2026-05-05 19:30 16.95222 -62.03690 1465 ft 188 kts 45°
2026-05-05 19:30 16.96226 -62.02809 1467 ft 188 kts 45°
2026-05-05 19:30 16.97236 -62.01923 1466 ft 190 kts 45°
2026-05-05 19:30 16.98248 -62.01036 1463 ft 191 kts 45°
2026-05-05 19:31 16.99271 -62.00137 1464 ft 193 kts 45°
2026-05-05 19:31 17.00288 -61.99245 1464 ft 193 kts 46°
2026-05-05 19:31 17.01314 -61.98345 1463 ft 191 kts 45°
2026-05-05 19:31 17.02327 -61.97456 1464 ft 190 kts 45°
2026-05-05 19:32 17.03341 -61.96550 1464 ft 191 kts 48°
2026-05-05 19:32 17.04100 -61.95429 1464 ft 188 kts 63°
2026-05-05 19:32 17.04781 -61.94267 1464 ft 186 kts 62°
2026-05-05 19:32 17.05473 -61.93112 1466 ft 188 kts 61°
2026-05-05 19:33 17.06164 -61.91951 1468 ft 188 kts 62°
2026-05-05 19:33 17.06856 -61.90785 1463 ft 189 kts 63°
2026-05-05 19:33 17.07549 -61.89614 1467 ft 190 kts 61°
2026-05-05 19:33 17.08245 -61.88442 1472 ft 191 kts 63°
2026-05-05 19:34 17.08937 -61.87271 1465 ft 190 kts 61°
2026-05-05 19:34 17.09634 -61.86106 1472 ft 189 kts 62°
2026-05-05 19:34 17.10324 -61.84937 1473 ft 186 kts 62°
2026-05-05 19:35 17.11800 -61.82841 719 ft 195 kts 45°
2026-05-05 19:35 17.12357 -61.81652 435 ft 188 kts 69°
2026-05-05 19:35 17.12986 -61.80470 330 ft 178 kts 56°
2026-05-05 19:35 17.14049 -61.80024 596 ft 181 kts 347°
2026-05-05 19:36 17.14799 -61.81055 597 ft 197 kts 270°
2026-05-05 19:36 17.14291 -61.82273 880 ft 179 kts 227°
2026-05-05 19:36 17.13313 -61.82948 763 ft 151 kts 186°
2026-05-05 19:36 17.12571 -61.82550 428 ft 127 kts 89°
2026-05-05 19:37 17.12598 -61.81680 282 ft 111 kts 82°
2026-05-05 19:37 17.12758 -61.80913 156 ft 103 kts 76°
2026-05-05 19:37 17.13071 -61.80291 73 ft 91 kts 64°
2026-05-05 19:37 17.13379 -61.79785 55 ft 72 kts 68°
2026-05-05 19:38 17.13516 -61.79511 53 ft 22 kts 54°
2026-05-05 19:38 17.13566 -61.79454 52 ft 14 kts 49°
2026-05-05 19:38 17.13645 -61.79463 51 ft 12 kts 332°
2026-05-05 19:38 17.13695 -61.79445 51 ft 7 kts 75°
2026-05-05 19:39 17.13683 -61.79426 50 ft 0 kts 142°